Погода в Фире

Греция     36°24′58″N   25°26′14″E
темп.,
°C
ветер,
м/с
пор.,
м/с
влажн.,
%
обл.,
%
осадки,
мм/ч
давл.,
гПа
погр.,
м
28 ноября, вс
вс2823:00+20ю9137926 0.0 1010473
02:00+20юз1116715 0.1 1010568
05:00+19зюз12158094 0.1 1010736
08:00+18зюз9137811 0.1 1012915
11:00+19юз8128097 0.0 1013678
14:00+19юз6107999 0.0 1012348
17:00+19ююв81185100 0.0 1012307
20:00+19ююв81283100 0.0 1011230
29 ноября, пн
пн2923:00+21ю10156661 0.0 1010278
02:00+22ю162463100 0.0 1007355
05:00+22ююз132167100 0.0 1007318
08:00+21юз101675100 0.0 1008333
11:00+19зюз91482100 0.0 1010562
14:00+19зюз121977100 0.0 1009636
17:00+19зюз121877100 0.0 1010947
20:00+18з131676100 0.0 10121097
30 ноября, вт
вт3023:00+18зюз1216720 0.0 10121474
02:00+18зюз1317670 0.0 10121706
05:00+17зюз15197245 0.2 10111726
08:00+16зюз16197677 1.6 10121527
11:00+16з172172100 0.8 10131732
14:00+17з1619635 1.4 10122060
17:00+17з1618630 0.0 10131725
20:00+16з1515575 0.0 10151934
1 декабря, ср
ср123:00+16зсз1112535 0.0 10151932
02:00+16зсз13125472 0.0 10162011
05:00+14сз10106054 0.4 10171491
08:00+14с666016 1.0 10191234
11:00+14сз45595 0.0 10201310
14:00+14сз55581 0.0 10191354
17:00+14сз55560 0.0 10191049
20:00+15з34550 0.0 10191001
2 декабря, чт
чт223:00+15юз33510 0.0 1019865
02:00+16ююз44630 0.0 1018947
05:00+16зюз67651 0.0 10181048
08:00+16зюз1011661 0.0 10181240
11:00+17зюз1011640 0.0 10181404
14:00+17зюз1012630 0.0 10171496
17:00+18юз91059100 0.0 10171776
20:00+18юз996694 0.2 10171227